Terminal Aerodrome Forecast
Issued by NWS

Home | Current Version | Previous Version | Text Only | Print | Product List | Glossary On
Versions: 1 2 3 4 5 6 7 8 9 10 11 12 13 14
000
FTUS46 KSTO 241700 CCA
TAFRDD
TAF COR
KRDD 241736Z 2418/2518 35011G19KT P6SM SKC
     FM242200 36009KT P6SM SKC
     FM250300 VRB04KT P6SM SKC=

USA.gov is the U.S. government's official web portal to all federal, state and local government web resources and services.